EW8665 Weather Reports


time (UTC)temp
C
wind
direction
speed
KPH
gust
KPH
rain 1hr
cm
rain 24hr
cm
rain mn
cm
humidity
%
barometer
mb
20260903192505 20 42 6.4 11.3 0.00 0.00 0.00 62 1024.6
20260903192004 20 45 4.8 11.3 0.00 0.00 0.00 63 1024.6
20260903190504 21 45 3.2 8.0 0.00 0.00 0.00 63 1024.5
20260903185504 21 49 4.8 9.7 0.00 0.00 0.00 62 1024.5
20260903184505 21 45 6.4 11.3 0.00 0.00 0.00 60 1024.3
20260903184005 22 42 6.4 9.7 0.00 0.00 0.00 59 1024.2
20260903183004 22 52 4.8 9.7 0.00 0.00 0.00 59 1024.1
20260903182004 22 61 3.2 6.4 0.00 0.00 0.00 55 1024.2
20260903181505 22 64 4.8 6.4 0.00 0.00 0.00 54 1024.0
20260903180505 23 169 1.6 4.8 0.00 0.00 0.00 53 1023.9
20260903180005 23 201 1.6 6.4 0.00 0.00 0.00 52 1023.8
20260903175505 24 228 1.6 6.4 0.00 0.00 0.00 50 1023.8
20260903175005 24 229 1.6 6.4 0.00 0.00 0.00 49 1023.7
20260903174005 25 229 1.6 6.4 0.00 0.00 0.00 46 1023.8
20260903173504 25 228 4.8 9.7 0.00 0.00 0.00 46 1023.7
20260903173005 25 226 6.4 12.9 0.00 0.00 0.00 46 1023.6
20260903172505 25 223 6.4 12.9 0.00 0.00 0.00 45 1023.5
20260903172004 25 221 6.4 12.9 0.00 0.00 0.00 45 1023.4
20260903171505 25 223 6.4 12.9 0.00 0.00 0.00 45 1023.5
20260903170505 26 226 6.4 16.1 0.00 0.00 0.00 45 1023.6
20260903165505 26 225 6.4 12.9 0.00 0.00 0.00 45 1023.7
20260903165006 26 227 6.4 12.9 0.00 0.00 0.00 45 1023.7
20260903164504 26 230 6.4 12.9 0.00 0.00 0.00 45 1023.7
20260903164004 26 233 6.4 11.3 0.00 0.00 0.00 44 1023.6
20260903163504 26 229 6.4 11.3 0.00 0.00 0.00 44 1023.5
20260903163004 26 231 8.0 17.7 0.00 0.00 0.00 45 1023.5
20260903162504 27 232 11.3 17.7 0.00 0.00 0.00 43 1023.5
20260903162004 27 237 9.7 17.7 0.00 0.00 0.00 42 1023.6
20260903161505 27 232 6.4 17.7 0.00 0.00 0.00 42 1023.6
20260903161005 27 224 8.0 19.3 0.00 0.00 0.00 43 1023.6
20260903160005 27 212 8.0 12.9 0.00 0.00 0.00 42 1023.9
20260903155504 26 218 8.0 12.9 0.00 0.00 0.00 42 1023.7
20260903155004 27 220 9.7 16.1 0.00 0.00 0.00 42 1023.7
20260903154504 27 222 9.7 16.1 0.00 0.00 0.00 42 1023.8
20260903154004 27 233 8.0 14.5 0.00 0.00 0.00 42 1023.8
20260903153504 27 241 8.0 14.5 0.00 0.00 0.00 42 1023.8
20260903153005 27 240 8.0 16.1 0.00 0.00 0.00 42 1023.8
20260903152506 27 239 8.0 16.1 0.00 0.00 0.00 41 1023.9
20260903152005 27 229 6.4 12.9 0.00 0.00 0.00 40 1023.9
20260903151504 27 226 8.0 12.9 0.00 0.00 0.00 40 1023.8
20260903151004 27 235 8.0 16.1 0.00 0.00 0.00 39 1023.9
20260903150504 27 237 8.0 16.1 0.00 0.00 0.00 40 1024.0
20260903150005 27 237 6.4 16.1 0.00 0.00 0.00 40 1024.0
20260903145006 27 242 9.7 17.7 0.00 0.00 0.00 40 1023.8
20260903144004 27 240 8.0 11.3 0.00 0.00 0.00 39 1024.0
20260903143505 27 248 8.0 17.7 0.00 0.00 0.00 39 1023.9
20260903143005 27 263 9.7 19.3 0.00 0.00 0.00 38 1024.2
20260903142005 27 273 9.7 24.1 0.00 0.00 0.00 36 1024.1
20260903141004 27 269 9.7 20.9 0.00 0.00 0.00 37 1024.2
20260903140505 27 265 8.0 20.9 0.00 0.00 0.00 36 1024.2
20260903140005 27 262 11.3 22.5 0.00 0.00 0.00 36 1024.2
20260903135505 27 260 14.5 22.5 0.00 0.00 0.00 36 1024.2
20260903133004 26 238 9.7 17.7 0.00 0.00 0.00 37 1024.2
20260903132506 26 234 8.0 17.7 0.00 0.00 0.00 37 1024.2
20260903132004 26 232 9.7 19.3 0.00 0.00 0.00 37 1024.1
20260903131504 26 230 11.3 27.4 0.00 0.00 0.00 37 1024.3
20260903131004 26 232 12.9 27.4 0.00 0.00 0.00 37 1024.1
20260903130504 26 211 12.9 22.5 0.00 0.00 0.00 37 1024.1
20260903130005 26 208 9.7 22.5 0.00 0.00 0.00 38 1024.1
20260903125505 26 205 8.0 19.3 0.00 0.00 0.00 39 1024.1
20260903125004 26 208 11.3 20.9 0.00 0.00 0.00 40 1024.1
20260903124504 26 211 14.5 20.9 0.00 0.00 0.00 39 1024.1
20260903124004 26 212 14.5 20.9 0.00 0.00 0.00 39 1024.2
20260903123505 26 236 9.7 20.9 0.00 0.00 0.00 39 1024.1
20260903123006 26 241 9.7 20.9 0.00 0.00 0.00 40 1024.2
20260903122504 26 239 9.7 20.9 0.00 0.00 0.00 39 1024.3
20260903122005 26 242 8.0 16.1 0.00 0.00 0.00 39 1024.4
20260903121504 26 243 9.7 16.1 0.00 0.00 0.00 39 1024.2
20260903121004 26 244 8.0 16.1 0.00 0.00 0.00 40 1024.3
20260903120004 26 240 6.4 12.9 0.00 0.00 0.00 40 1024.6
20260903115504 26 240 6.4 12.9 0.00 0.00 0.00 41 1024.8
20260903115005 25 235 8.0 20.9 0.00 0.00 0.00 40 1024.6
20260903114505 25 231 9.7 20.9 0.00 0.00 0.00 40 1024.4
20260903114005 25 221 9.7 20.9 0.00 0.00 0.00 40 1024.7
20260903113004 25 223 8.0 16.1 0.00 0.00 0.00 40 1024.7
20260903112505 25 235 8.0 16.1 0.00 0.00 0.00 40 1024.9
20260903112004 25 249 4.8 12.9 0.00 0.00 0.00 42 1024.9
20260903111005 25 263 8.0 14.5 0.00 0.00 0.00 41 1025.0
20260903110504 25 269 9.7 12.9 0.00 0.00 0.00 41 1024.8
20260903110004 25 261 11.3 17.7 0.00 0.00 0.00 41 1025.2
20260903105005 25 248 8.0 20.9 0.00 0.00 0.00 42 1025.1
20260903104505 25 244 9.7 20.9 0.00 0.00 0.00 43 1025.4
20260903104005 24 238 8.0 19.3 0.00 0.00 0.00 45 1025.0
20260903103505 24 229 6.4 19.3 0.00 0.00 0.00 45 1025.2
20260903103004 24 233 6.4 19.3 0.00 0.00 0.00 46 1025.1
20260903102504 24 250 6.4 17.7 0.00 0.00 0.00 46 1025.1
20260903102004 24 249 8.0 17.7 0.00 0.00 0.00 46 1025.2
20260903101004 23 247 6.4 12.9 0.00 0.00 0.00 46 1025.1
20260903100504 23 256 8.0 14.5 0.00 0.00 0.00 45 1025.3
20260903100005 23 268 6.4 14.5 0.00 0.00 0.00 45 1025.2
20260903095505 23 264 6.4 14.5 0.00 0.00 0.00 46 1025.4
20260903095004 23 266 8.0 16.1 0.00 0.00 0.00 45 1025.2
20260903094504 23 265 9.7 16.1 0.00 0.00 0.00 46 1025.2
20260903094004 23 270 8.0 12.9 0.00 0.00 0.00 46 1025.3
20260903093506 23 262 9.7 17.7 0.00 0.00 0.00 46 1025.2
20260903093005 23 251 6.4 17.7 0.00 0.00 0.00 45 1025.3
20260903092504 23 249 6.4 14.5 0.00 0.00 0.00 46 1025.2
20260903092004 23 250 8.0 16.1 0.00 0.00 0.00 47 1025.6
20260903091504 23 254 8.0 16.1 0.00 0.00 0.00 46 1025.5
20260903091004 23 247 9.7 20.9 0.00 0.00 0.00 46 1025.5
20260903090505 22 243 9.7 20.9 0.00 0.00 0.00 48 1025.1
20260903085004 22 248 6.4 14.5 0.00 0.00 0.00 47 1025.0
20260903083504 22 258 6.4 14.5 0.00 0.00 0.00 54 1025.2
20260903083004 22 256 6.4 14.5 0.00 0.00 0.00 54 1024.8
20260903082505 22 258 3.2 6.4 0.00 0.00 0.00 54 1024.9
20260903082004 22 264 4.8 11.3 0.00 0.00 0.00 54 1024.8
20260903081504 21 264 6.4 12.9 0.00 0.00 0.00 55 1024.8
20260903081004 21 259 8.0 12.9 0.00 0.00 0.00 55 1024.9
20260903080504 21 257 6.4 12.9 0.00 0.00 0.00 55 1025.0
20260903080005 21 256 6.4 12.9 0.00 0.00 0.00 57 1025.1
20260903075005 21 208 4.8 11.3 0.00 0.00 0.00 61 1024.9
20260903074504 20 151 1.6 8.0 0.00 0.00 0.00 62 1025.0
20260903074005 20 106 1.6 3.2 0.00 0.00 0.00 64 1024.6
20260903073506 20 87 1.6 3.2 0.00 0.00 0.00 64 1024.6
20260903073004 19 83 1.6 3.2 0.00 0.00 0.00 65 1024.5
20260903072504 19 78 1.6 3.2 0.00 0.00 0.00 65 1024.3
20260903072006 18 75 1.6 3.2 0.00 0.00 0.00 66 1024.4
20260903071504 18 69 3.2 4.8 0.00 0.00 0.00 68 1024.4
20260903071004 18 63 3.2 4.8 0.00 0.00 0.00 69 1024.4
20260903070504 18 56 3.2 4.8 0.00 0.00 0.00 69 1024.3
20260903070005 17 55 3.2 4.8 0.00 0.00 0.00 69 1024.2
20260903065505 17 53 3.2 6.4 0.00 0.00 0.00 69 1024.4
20260903065004 17 46 3.2 6.4 0.00 0.00 0.00 73 1024.6
20260903064005 16 53 3.2 6.4 0.00 0.00 0.00 73 1024.7
20260903063505 16 62 4.8 6.4 0.00 0.00 0.00 73 1024.6
20260903063004 16 71 3.2 6.4 0.00 0.00 0.00 73 1024.5
20260903062504 16 79 3.2 4.8 0.00 0.00 0.00 73 1024.6
20260903062004 16 90 3.2 4.8 0.00 0.00 0.00 73 1024.7
20260903061504 16 98 3.2 4.8 0.00 0.00 0.00 73 1024.8
20260903061004 16 102 3.2 4.8 0.00 0.00 0.00 74 1024.7
20260903060504 15 103 3.2 4.8 0.00 0.00 0.00 75 1024.8
20260903055506 15 95 3.2 3.2 0.00 0.00 0.00 75 1024.8
20260903054504 15 87 3.2 3.2 0.00 0.00 0.00 75 1024.6
20260903054004 15 87 1.6 4.8 0.00 0.00 0.00 75 1024.6
20260903053504 14 85 3.2 4.8 0.00 0.00 0.00 75 1024.3
20260903053004 14 81 3.2 6.4 0.00 0.00 0.00 76 1024.4
20260903052504 14 75 3.2 6.4 0.00 0.00 0.00 76 1024.6
20260903052006 14 75 1.6 4.8 0.00 0.00 0.00 75 1024.4
20260903051504 14 77 3.2 4.8 0.00 0.00 0.00 76 1024.3
20260903050506 14 67 3.2 6.4 0.00 0.00 0.00 76 1024.3
20260903050004 14 68 3.2 6.4 0.00 0.00 0.00 76 1024.2
20260903045504 14 67 3.2 4.8 0.00 0.00 0.00 76 1024.0
20260903045005 14 66 3.2 4.8 0.00 0.00 0.00 76 1024.1
20260903044504 14 68 3.2 3.2 0.00 0.00 0.00 75 1024.1
20260903044004 14 77 3.2 4.8 0.00 0.00 0.00 75 1024.0
20260903043504 14 84 3.2 4.8 0.00 0.00 0.00 75 1024.0
20260903042005 15 87 3.2 4.8 0.00 0.00 0.00 75 1024.2
20260903041504 15 80 3.2 6.4 0.00 0.00 0.00 75 1024.2
20260903041005 15 75 4.8 6.4 0.00 0.00 0.00 75 1024.0
20260903040504 15 74 3.2 6.4 0.00 0.00 0.00 74 1024.0
20260903040004 15 76 4.8 6.4 0.00 0.00 0.00 74 1024.0
20260903035505 15 78 4.8 6.4 0.00 0.00 0.00 74 1023.8
20260903035004 15 72 3.2 6.4 0.00 0.00 0.00 74 1023.9
20260903034504 15 77 3.2 4.8 0.00 0.00 0.00 73 1023.9
20260903034006 15 84 1.6 3.2 0.00 0.00 0.00 73 1024.0
20260903033504 15 82 1.6 4.8 0.00 0.00 0.00 73 1023.9
20260903033004 15 78 3.2 6.4 0.00 0.00 0.00 73 1023.9
20260903032504 15 81 3.2 6.4 0.00 0.00 0.00 72 1023.9
20260903031504 16 90 3.2 4.8 0.00 0.00 0.00 72 1024.1
20260903031005 16 77 1.6 3.2 0.00 0.00 0.00 72 1024.0
20260903030505 16 62 1.6 3.2 0.00 0.00 0.00 72 1024.1
20260903030004 16 57 1.6 3.2 0.00 0.00 0.00 72 1024.1
20260903025504 16 49 1.6 3.2 0.00 0.00 0.00 72 1024.1
20260903025004 16 42 1.6 9.7 0.00 0.00 0.00 72 1024.0
20260903024504 16 36 3.2 9.7 0.00 0.00 0.00 72 1024.1
20260903024005 16 36 3.2 9.7 0.00 0.00 0.00 72 1023.9
20260903023504 16 31 4.8 9.7 0.00 0.00 0.00 72 1023.9
20260903023004 16 30 4.8 8.0 0.00 0.00 0.00 72 1024.0
20260903022504 16 29 4.8 8.0 0.00 0.00 0.00 72 1023.9
20260903022005 16 29 4.8 8.0 0.00 0.00 0.00 72 1024.1
20260903021504 16 31 4.8 9.7 0.00 0.00 0.00 72 1024.1
20260903021004 16 28 4.8 9.7 0.00 0.00 0.00 72 1024.1
20260903020505 16 31 4.8 8.0 0.00 0.00 0.00 72 1024.2
20260903015504 16 37 4.8 9.7 0.00 0.00 0.00 72 1024.0
20260903014504 16 38 4.8 8.0 0.00 0.00 0.00 72 1024.2
20260903014004 16 40 4.8 6.4 0.00 0.00 0.00 72 1024.4
20260903013504 16 38 4.8 6.4 0.00 0.00 0.00 72 1024.2
20260903012506 16 36 4.8 8.0 0.00 0.00 0.00 72 1024.4
20260903012004 16 36 4.8 8.0 0.00 0.00 0.00 72 1024.4
20260903011504 16 35 4.8 8.0 0.00 0.00 0.00 73 1024.2
20260903011004 16 31 4.8 6.4 0.00 0.00 0.00 73 1024.5
20260903010504 16 34 6.4 9.7 0.00 0.00 0.00 73 1024.4
20260903005004 16 38 6.4 11.3 0.00 0.00 0.00 73 1024.3
20260903004505 16 42 6.4 11.3 0.00 0.00 0.00 73 1024.2
20260903004004 16 49 6.4 9.7 0.00 0.00 0.00 73 1024.3
20260903003504 16 50 6.4 9.7 0.00 0.00 0.00 73 1024.4
20260903003004 16 47 6.4 9.7 0.00 0.00 0.00 73 1024.4
20260903002504 16 47 4.8 9.7 0.00 0.00 0.00 73 1024.3
20260903002006 16 51 6.4 9.7 0.00 0.00 0.00 73 1024.1
20260903001504 16 52 6.4 9.7 0.00 0.00 0.00 73 1024.3
20260903001004 17 53 6.4 9.7 0.00 0.00 0.00 72 1024.1
20260903000504 17 52 6.4 14.5 0.00 0.00 0.00 72 1024.2
20260903000004 17 52 8.0 14.5 0.00 0.00 0.00 72 1024.2
20260902235504 17 51 6.4 12.9 0.00 0.00 0.00 72 1024.2
20260902235003 17 52 6.4 12.9 0.00 0.00 0.00 72 1024.1
20260902234504 17 57 8.0 12.9 0.00 0.00 0.00 72 1024.2
20260902234004 17 59 8.0 12.9 0.00 0.00 0.00 72 1024.3
20260902233504 17 62 6.4 12.9 0.00 0.00 0.00 72 1024.2
20260902233006 17 61 4.8 9.7 0.00 0.00 0.00 72 1024.3
20260902232504 17 63 4.8 8.0 0.00 0.00 0.00 71 1024.3
20260902232004 17 61 6.4 9.7 0.00 0.00 0.00 71 1024.3
20260902231504 17 51 6.4 9.7 0.00 0.00 0.00 70 1024.3
20260902231004 17 47 4.8 9.7 0.00 0.00 0.00 70 1024.4
20260902230503 17 46 4.8 9.7 0.00 0.00 0.00 70 1024.2
20260902230004 17 49 4.8 8.0 0.00 0.00 0.00 69 1024.0
20260902225004 17 55 6.4 9.7 0.00 0.00 0.00 65 1024.3
20260902224504 17 61 4.8 9.7 0.00 0.00 0.00 65 1024.0
20260902224003 17 64 4.8 6.4 0.00 0.00 0.00 65 1024.2
20260902223504 17 66 3.2 6.4 0.00 0.00 0.00 65 1024.2
20260902223004 17 69 3.2 6.4 0.00 0.00 0.00 65 1024.0
20260902221504 17 60 3.2 6.4 0.00 0.00 0.00 65 1024.3
20260902221004 17 60 3.2 6.4 0.00 0.00 0.00 65 1024.4
20260902220504 17 79 3.2 6.4 0.00 0.00 0.00 64 1024.2
20260902215506 17 78 4.8 8.0 0.00 0.00 0.00 64 1024.1
20260902214504 18 83 4.8 9.7 0.00 0.00 0.00 64 1024.1
20260902214004 18 83 4.8 8.0 0.00 0.00 0.00 63 1024.0
20260902213504 18 65 4.8 8.0 0.00 0.00 0.00 63 1024.2
20260902213004 18 58 4.8 8.0 0.00 0.00 0.00 63 1024.0
20260902212504 18 57 4.8 8.0 0.00 0.00 0.00 63 1024.0
20260902212004 18 54 4.8 8.0 0.00 0.00 0.00 63 1024.0
20260902211504 18 45 3.2 6.4 0.00 0.00 0.00 63 1024.0
20260902211004 18 43 3.2 6.4 0.00 0.00 0.00 63 1024.0
20260902210505 18 33 3.2 6.4 0.00 0.00 0.00 63 1024.1
20260902210004 18 24 4.8 6.4 0.00 0.00 0.00 63 1024.0
20260902205504 18 20 4.8 8.0 0.00 0.00 0.00 63 1024.2
20260902205004 18 18 4.8 8.0 0.00 0.00 0.00 63 1024.0
20260902204504 18 20 4.8 8.0 0.00 0.00 0.00 63 1024.0
20260902204004 18 20 4.8 6.4 0.00 0.00 0.00 63 1024.1
20260902203504 18 25 4.8 8.0 0.00 0.00 0.00 63 1023.9
20260902203004 18 35 4.8 8.0 0.00 0.00 0.00 63 1023.8
20260902202504 18 39 3.2 6.4 0.00 0.00 0.00 62 1023.7
20260902201504 18 42 3.2 4.8 0.00 0.00 0.00 63 1023.6
20260902201004 18 46 3.2 6.4 0.00 0.00 0.00 63 1023.8
20260902200504 19 45 4.8 6.4 0.00 0.00 0.00 63 1023.7
20260902200004 19 43 4.8 8.0 0.00 0.00 0.00 63 1023.5
20260902195004 19 38 6.4 9.7 0.00 0.00 0.00 63 1023.7
20260902194504 19 36 4.8 9.7 0.00 0.00 0.00 63 1023.7
20260902194004 19 34 4.8 8.0 0.00 0.00 0.00 63 1023.7
20260902193005 19 33 4.8 9.7 0.00 0.00 0.00 63 1023.5